[[{"header":{"parameterUnit":"m.s-1","parameterCategory":1,"la1":30.2991,"la2":30.254,"lo1":-89.0895,"lo2":-89.0444,"dy":0.0017,"dx":0.0017,"nx":28,"ny":28,"refTime":"2024-06-03T03:00:00:Z","depth":0,"parameterNumber":2,"parameterNumberName":"U-component_of_WINDS"},"data":[0,0,0,0,0,0,0,0,0,0,0,0,0,0,0,0,0,0,0,0,0,0,0,0,0,0,0,0,0,0,0,0,0,0,0,0,0,0,0,0,0,0,0,0,0,0,0,0,0,0,0,0,0,0,0,0,0,0,-1.63,-1.6299,0,-1.6219,-1.6218,-1.6217,-1.6171,-1.6171,-1.6171,-1.6171,-1.6087,-1.6085,-1.6083,0,0,0,0,0,0,0,0,0,0,0,0,0,-1.6414,-1.6412,-1.63,-1.6299,-1.6298,-1.6219,-1.6218,-1.6217,-1.6172,-1.6171,-1.6171,-1.6171,-1.6088,-1.6085,-1.6083,0,0,0,0,0,0,0,0,0,0,0,0,0,-1.6352,-1.6412,-1.63,-1.6266,-1.6262,-1.6219,-1.6218,-1.6217,-1.6172,-1.6171,-1.6171,-1.6171,-1.6088,-1.6085,-1.6082,-1.6067,0,0,-1.6073,-1.6071,0,0,0,0,0,0,0,0,-1.6356,-1.6348,-1.6272,-1.6268,-1.6264,-1.6205,-1.6228,-1.6167,-1.6172,-1.6206,-1.6171,-1.6171,-1.6126,-1.612,-1.6105,-1.6063,-1.606,-1.6072,-1.607,-1.6069,-1.6068,0,0,0,0,0,0,0,-1.636,-1.6351,-1.6268,-1.6271,-1.6266,-1.6254,-1.6245,-1.6216,-1.6168,-1.6203,-1.6199,-1.619,-1.6124,-1.6108,-1.6103,-1.6058,-1.6072,-1.607,-1.6068,-1.6066,-1.6001,-1.6001,0,0,0,0,0,0,-1.637,-1.6355,-1.627,-1.6265,-1.631,-1.6252,-1.6242,-1.6224,-1.6168,-1.616,-1.6191,-1.6189,-1.6114,-1.6107,-1.61,-1.6079,-1.6069,-1.6066,-1.6064,-1.6001,-1.6001,-1.6001,0,0,0,0,0,0,-1.6373,-1.6363,-1.6274,-1.6309,-1.6297,-1.6251,-1.6231,-1.6223,-1.6207,-1.6159,-1.6151,-1.6184,-1.6113,-1.6104,-1.6076,-1.6075,-1.6065,-1.6062,-1.6,-1.6001,-1.6001,-1.6036,0,0,0,0,0,0,-1.6376,-1.6364,-1.6358,-1.631,-1.6295,-1.6251,-1.6231,-1.6221,-1.6202,-1.6198,-1.615,-1.6142,-1.6113,-1.6081,-1.6073,-1.607,-1.6059,-1.6,-1.6001,-1.6001,-1.6035,-1.6038,-1.604,0,0,0,0,0,-1.638,-1.6371,-1.6358,-1.6348,-1.6287,-1.6251,-1.6243,-1.621,-1.6202,-1.6195,-1.6165,-1.6144,-1.6077,-1.6078,-1.6069,-1.6066,-1.6,-1.6,-1.6001,-1.6034,-1.6037,-1.604,0,0,0,0,0,0,-1.6419,-1.6364,-1.6349,-1.6323,-1.6292,-1.6244,-1.6234,-1.6214,-1.6185,-1.6182,-1.6142,-1.6132,-1.6107,-1.6084,-1.6086,-1.6049,-1.6036,-1.6035,-1.6065,-1.6067,-1.607,-1.6075,-1.6057,0,0,0,0,0,-1.6425,-1.6401,-1.6354,-1.6336,-1.6321,-1.6281,-1.6264,-1.6241,-1.6207,-1.6194,-1.6161,-1.6129,-1.6101,-1.6083,-1.6054,-1.6032,-1.6021,-1.6025,-1.6028,-1.603,-1.6029,-1.6015,-1.6017,-1.6002,-1.6002,-1.6002,0,0,-1.6436,-1.6403,-1.639,-1.6343,-1.6316,-1.6292,-1.627,-1.6245,-1.6227,-1.619,-1.6161,-1.6137,-1.6098,-1.6073,-1.606,-1.6052,-1.6031,-1.603,-1.6033,-1.603,-1.6016,-1.6017,-1.6018,-1.6002,-1.6002,-1.6002,0,0,-1.6444,-1.6417,-1.6399,-1.6373,-1.6334,-1.6307,-1.6303,-1.6257,-1.624,-1.6211,-1.6183,-1.6161,-1.6113,-1.6087,-1.6067,-1.6067,-1.6046,-1.6059,-1.6072,-1.6059,-1.606,-1.6061,-1.6061,-1.6061,-1.6058,-1.6059,-1.6059,0,-1.6463,-1.6426,-1.6392,-1.6369,-1.6349,-1.6316,-1.6298,-1.6274,-1.6227,-1.6214,-1.6207,-1.6147,-1.6119,-1.6087,-1.6087,-1.6073,-1.6066,-1.6064,-1.6063,-1.6063,-1.6064,-1.6063,-1.6063,-1.606,-1.606,-1.606,-1.606,0,-1.6451,-1.6426,-1.6416,-1.6372,-1.6351,-1.6331,-1.6294,-1.6277,-1.6257,-1.6231,-1.6202,-1.6167,-1.6131,-1.6122,-1.6102,-1.6088,-1.6084,-1.6071,-1.6057,-1.6067,-1.6066,-1.6065,-1.6063,-1.6062,-1.6062,-1.6061,0,0,-1.6479,-1.6418,-1.6415,-1.6395,-1.635,-1.633,-1.6308,-1.6274,-1.626,-1.6229,-1.621,-1.6171,-1.6159,-1.6137,-1.6113,-1.6102,-1.6105,-1.609,-1.6088,-1.6093,-1.6087,-1.6097,-1.6097,-1.6091,-1.6091,-1.6091,-1.609,0,-1.6479,-1.6439,-1.6409,-1.638,-1.6356,-1.6326,-1.6307,-1.6277,-1.6253,-1.623,-1.6203,-1.6176,-1.6162,-1.6148,-1.6136,-1.6107,-1.6103,-1.6107,-1.6072,-1.6071,-1.6082,-1.6096,-1.6106,-1.6106,-1.6089,-1.6089,-1.6089,0,-1.6474,-1.6446,-1.6415,-1.6373,-1.6362,-1.6346,-1.6312,-1.629,-1.6256,-1.6239,-1.6216,-1.6192,-1.6168,-1.6159,-1.6125,-1.6128,-1.6113,-1.6097,-1.6096,-1.609,-1.608,-1.609,-1.6105,-1.6105,-1.6088,-1.6088,-1.6088,0,-1.6497,-1.6451,-1.6426,-1.6411,-1.6361,-1.6351,-1.633,-1.6296,-1.6277,-1.6248,-1.6236,-1.6204,-1.6186,-1.6163,-1.6131,-1.6127,-1.6101,-1.6088,-1.6086,-1.6086,-1.608,-1.608,-1.6092,-1.6072,-1.6072,-1.6072,-1.6072,0,-1.6501,-1.6483,-1.6436,-1.6421,-1.64,-1.6366,-1.6347,-1.6323,-1.6293,-1.6273,-1.6245,-1.6226,-1.6186,-1.6163,-1.6139,-1.6114,-1.6107,-1.6092,-1.6086,-1.6094,-1.6096,-1.6082,-1.6081,-1.6072,-1.6072,-1.6072,-1.6072,0,-1.6522,-1.649,-1.6461,-1.6418,-1.6407,-1.6393,-1.6356,-1.634,-1.6315,-1.629,-1.6282,-1.6243,-1.6214,-1.6181,-1.6141,-1.6124,-1.6102,-1.6093,-1.6113,-1.6109,-1.6108,-1.6109,-1.6111,-1.6109,-1.6091,-1.6092,-1.6092,0,-1.6526,-1.6511,-1.6466,-1.6451,-1.6431,-1.6407,-1.6388,-1.6354,-1.6336,-1.6297,-1.6286,-1.6256,-1.6229,-1.6185,-1.6153,-1.6122,-1.6112,-1.6115,-1.6107,-1.6116,-1.6111,-1.6112,-1.611,-1.6116,-1.6117,-1.6117,-1.6117,0,-1.6535,-1.6521,-1.6495,-1.6464,-1.6443,-1.6417,-1.6389,-1.6378,-1.634,-1.6321,-1.6291,-1.6271,-1.6231,-1.6201,-1.6167,-1.6145,-1.6124,-1.612,-1.6118,-1.6126,-1.6138,-1.6131,-1.6118,-1.612,-1.612,-1.612,-1.6119,-1.6119,-1.6547,-1.6533,-1.6499,-1.6472,-1.6448,-1.6424,-1.6407,-1.6381,-1.6356,-1.6321,-1.6303,-1.6274,-1.6241,-1.6193,-1.6173,-1.6149,-1.6142,-1.6139,-1.6138,-1.6137,-1.614,-1.6143,-1.6143,-1.6143,-1.6143,-1.6143,-1.6143,0,-1.6555,-1.6532,-1.6507,-1.647,-1.6449,-1.6433,-1.6402,-1.6385,-1.636,-1.6332,-1.6307,-1.6274,-1.6245,-1.6211,-1.618,-1.6168,-1.6158,-1.6161,-1.616,-1.6156,-1.6148,-1.6153,-1.6169,-1.6169,-1.6169,-1.6169,-1.6169,-1.6169,-1.6556,-1.6531,-1.6513,-1.6476,-1.6454,-1.6425,-1.6409,-1.6387,-1.6364,-1.6328,-1.6304,-1.6283,-1.6252,-1.6219,-1.6192,-1.6183,-1.6172,-1.6178,-1.6166,-1.6159,-1.6156,-1.6154,-1.6158,-1.6176,-1.6176,-1.6175,-1.6175,-1.6175]},{"header":{"parameterUnit":"m.s-1","parameterCategory":1,"la1":30.2991,"la2":30.254,"lo1":-89.0895,"lo2":-89.0444,"dy":0.0017,"dx":0.0017,"nx":28,"ny":28,"refTime":"2024-06-03T03:00:00:Z","depth":0,"parameterNumber":3,"parameterNumberName":"V-component_of_WINDS"},"data":[0,0,0,0,0,0,0,0,0,0,0,0,0,0,0,0,0,0,0,0,0,0,0,0,0,0,0,0,0,0,0,0,0,0,0,0,0,0,0,0,0,0,0,0,0,0,0,0,0,0,0,0,0,0,0,0,0,0,5.1658,5.1657,0,5.1638,5.1637,5.1637,5.1562,5.156,5.1559,5.1557,5.1539,5.154,5.1541,0,0,0,0,0,0,0,0,0,0,0,0,0,5.1633,5.1634,5.1658,5.1657,5.1657,5.1638,5.1637,5.1637,5.1562,5.156,5.1558,5.1556,5.1538,5.154,5.1541,0,0,0,0,0,0,0,0,0,0,0,0,0,5.1631,5.1634,5.1658,5.1617,5.1614,5.1638,5.1637,5.1637,5.1563,5.156,5.1558,5.1555,5.1538,5.154,5.1541,5.1603,0,0,5.1546,5.1547,0,0,0,0,0,0,0,0,5.1632,5.1632,5.1624,5.162,5.1616,5.16,5.1622,5.1626,5.1564,5.1582,5.1557,5.1554,5.1561,5.1561,5.1563,5.1602,5.1601,5.1546,5.1547,5.1548,5.1549,0,0,0,0,0,0,0,5.1632,5.1633,5.165,5.1624,5.1619,5.1601,5.1598,5.1622,5.1587,5.158,5.1575,5.1573,5.1559,5.1561,5.1562,5.1601,5.1546,5.1548,5.1549,5.155,5.169,5.1693,0,0,0,0,0,0,5.1637,5.1633,5.165,5.1649,5.1618,5.1604,5.16,5.1608,5.1586,5.158,5.1576,5.157,5.156,5.156,5.1561,5.1632,5.1548,5.155,5.1551,5.1687,5.1691,5.1694,0,0,0,0,0,0,5.1637,5.1639,5.1651,5.164,5.164,5.1607,5.1616,5.1609,5.1611,5.1582,5.1576,5.1585,5.1558,5.1559,5.1593,5.163,5.155,5.1552,5.1684,5.1688,5.1692,5.1774,0,0,0,0,0,0,5.1637,5.164,5.1663,5.1641,5.1641,5.1683,5.1618,5.161,5.1614,5.1606,5.1589,5.1584,5.1556,5.1591,5.1595,5.1631,5.1553,5.1681,5.1686,5.1691,5.1768,5.1781,5.1791,0,0,0,0,0,5.1636,5.1687,5.1664,5.1667,5.1669,5.1686,5.1686,5.1652,5.1617,5.164,5.1622,5.1585,5.1625,5.1595,5.1599,5.1636,5.1678,5.1685,5.1691,5.1763,5.1778,5.1791,0,0,0,0,0,0,5.1715,5.1683,5.1658,5.1703,5.1698,5.1673,5.1701,5.1669,5.1673,5.1666,5.1624,5.1621,5.1662,5.1652,5.1619,5.1695,5.1646,5.1653,5.1699,5.1714,5.1725,5.1727,5.1555,0,0,0,0,0,5.1738,5.1754,5.1725,5.1768,5.1767,5.1734,5.1741,5.1715,5.1707,5.1705,5.1689,5.1684,5.1695,5.1704,5.1713,5.1766,5.1762,5.1794,5.1805,5.1815,5.1822,5.1849,5.1863,5.1714,5.1714,5.1714,0,0,5.1785,5.1769,5.1782,5.1784,5.1776,5.1794,5.1733,5.1755,5.1768,5.1708,5.174,5.1728,5.1719,5.1764,5.1782,5.1757,5.1862,5.1823,5.1831,5.1832,5.1857,5.1871,5.1884,5.1718,5.1717,5.1717,0,0,5.1879,5.187,5.1904,5.1898,5.1887,5.1865,5.1873,5.1853,5.1843,5.1874,5.183,5.1845,5.1866,5.1861,5.1862,5.1955,5.1921,5.1959,5.202,5.2047,5.2059,5.2069,5.2103,5.2115,5.1966,5.1966,5.1966,0,5.194,5.1964,5.1926,5.195,5.1952,5.1899,5.1933,5.1929,5.1923,5.1925,5.1897,5.1922,5.1912,5.1955,5.1977,5.198,5.1988,5.1961,5.206,5.207,5.2079,5.2111,5.2123,5.1971,5.197,5.197,5.197,0,5.2038,5.2056,5.2085,5.2079,5.2084,5.2114,5.2081,5.2091,5.2065,5.2046,5.2078,5.2065,5.207,5.2078,5.2053,5.2117,5.2102,5.2068,5.2018,5.2099,5.2127,5.2139,5.1978,5.1976,5.1975,5.1973,0,0,5.2183,5.2155,5.2166,5.2162,5.2146,5.216,5.2187,5.2191,5.2201,5.2198,5.222,5.2239,5.2207,5.2208,5.2182,5.2206,5.228,5.2168,5.2168,5.219,5.235,5.2376,5.239,5.2258,5.226,5.2262,5.2351,0,5.2273,5.2317,5.2283,5.2333,5.2349,5.2299,5.2322,5.2316,5.2299,5.2311,5.2292,5.2306,5.2263,5.2263,5.2285,5.2267,5.2312,5.226,5.2278,5.2279,5.2282,5.2405,5.2432,5.2517,5.2362,5.2364,5.2365,0,5.2384,5.2385,5.2437,5.2417,5.2423,5.2444,5.2446,5.2457,5.2449,5.2435,5.2436,5.2403,5.2429,5.238,5.2415,5.2381,5.2386,5.2379,5.2381,5.2381,5.2327,5.2409,5.2543,5.2556,5.2382,5.2381,5.238,0,5.2484,5.2499,5.2531,5.253,5.2508,5.2524,5.2516,5.2504,5.2509,5.2511,5.2513,5.2518,5.2521,5.2526,5.2496,5.2463,5.2535,5.2484,5.2525,5.2526,5.2542,5.2542,5.268,5.2546,5.2546,5.2546,5.2546,0,5.2588,5.2622,5.2576,5.2596,5.2632,5.2593,5.263,5.2617,5.2607,5.2624,5.2581,5.2598,5.2557,5.2571,5.2547,5.258,5.2582,5.2572,5.2565,5.2576,5.2577,5.2579,5.2572,5.2549,5.2549,5.2548,5.2547,0,5.2706,5.2676,5.2709,5.2685,5.268,5.2707,5.2687,5.2705,5.2685,5.2708,5.2711,5.268,5.2693,5.2664,5.2673,5.2657,5.2704,5.2688,5.2707,5.2702,5.2745,5.2741,5.2889,5.2906,5.2762,5.2763,5.2765,0,5.2775,5.2799,5.2777,5.2785,5.2779,5.2792,5.2797,5.2759,5.2766,5.2758,5.2777,5.2786,5.2792,5.2815,5.2794,5.2801,5.2785,5.2836,5.2786,5.2796,5.2786,5.2785,5.2787,5.2847,5.2849,5.285,5.2851,0,5.2899,5.2883,5.289,5.2893,5.2899,5.29,5.2897,5.2906,5.2866,5.2876,5.2888,5.2893,5.2901,5.2911,5.2913,5.2905,5.2872,5.2867,5.2877,5.2888,5.2898,5.2893,5.2735,5.2864,5.2863,5.2862,5.2861,5.2861,5.2994,5.3013,5.3001,5.3011,5.3005,5.3003,5.3019,5.3001,5.301,5.3014,5.2991,5.3009,5.2999,5.2998,5.2994,5.3007,5.2984,5.2999,5.3002,5.3007,5.3014,5.2896,5.3008,5.3007,5.3007,5.3007,5.3006,0,5.3116,5.3106,5.3115,5.3112,5.312,5.3087,5.3082,5.3091,5.3107,5.31,5.3106,5.3121,5.313,5.311,5.3116,5.3131,5.3116,5.3134,5.3132,5.3131,5.3034,5.3024,5.3146,5.3146,5.3146,5.3146,5.3146,5.3146,5.3181,5.3212,5.3194,5.3222,5.3211,5.3226,5.3227,5.3225,5.322,5.3237,5.3245,5.3231,5.3219,5.3224,5.3232,5.3226,5.323,5.3254,5.3242,5.3152,5.3138,5.3125,5.3116,5.3255,5.3255,5.3338,5.3339,5.334]}]]